Location: Sokourani
(13.2181°N, 4.8598°W)
Time: 22:28:24
(UTC+00:00)

Daily predictions for brighter satellites

Satellite Brightness Start Highest point End
(mag) Time Altitude Azimuth Time Altitude Azimuth Time Altitude Azimuth
ATLAS 5 CENTAUR R/B 1.8 18:00:59 10° WNW 18:03:56 47° N 18:12:32 10° ENE
Cosmos 1680 Rocket 3.7 18:05:30 10° S 18:10:31 50° ESE 18:15:32 10° NNE
AQUARIUS 4.1 18:07:33 10° SSE 18:12:02 82° ENE 18:16:31 10° N
Meteor 2-3 Rocket 3.8 18:06:37 10° N 18:12:23 83° E 18:18:06 10° S
USA 116 4.4 18:16:52 10° NNE 18:21:49 70° ESE 18:27:06 10° S
SKYMED 2 4.1 18:19:27 10° N 18:23:43 62° WNW 18:28:00 10° SSW
CZ-4 R/B 2.4 18:23:02 10° SE 18:26:33 26° ENE 18:30:02 10° NNE
NOAA 12 4.1 18:24:22 10° SSE 18:29:40 75° ENE 18:34:58 10° N
GPS 2-15 Rocket1 3.9 18:26:49 10° WNW 18:31:27 43° N 18:35:15 15° ENE
Cosmos 2233 Rocket 4.5 18:25:26 10° NNW 18:31:39 66° W 18:37:48 10° S
Cosmos 158 Rocket 4.5 18:27:24 10° S 18:32:26 42° ESE 18:37:27 10° NNE
SMAP 4.4 18:30:37 10° S 18:35:01 43° W 18:39:25 10° NNW
Starlink Launch 2 Placeholder 2.6 18:33:16 10° NNW 18:35:36 41° NE 18:37:23 15° ESE
BREEZE M DEB (TANK) 4.3 18:31:23 10° NNW 18:36:14 78° NE 18:57:47 10° SE
Cosmos 1805 Rocket 3.5 18:32:01 10° N 18:36:21 66° E 18:40:41 10° SSE
Skynet4D Del rocket 3.5 18:35:10 10° WNW 18:41:00 81° NNE 18:45:51 13° ESE
Cosmos 1606 3.9 18:42:16 10° SE 18:45:12 22° E 18:45:12 22° E
Ariane H10 3.4 18:40:57 10° WSW 18:48:34 40° S 18:50:59 17° ESE
ADEOS Rocket 4.0 18:48:19 20° E 18:49:32 22° E 18:53:43 10° SSE
CZ-3C R/B 1.7 18:47:32 10° WNW 18:51:18 24° N 18:52:11 21° NNE
Cosmos 1464 Rocket 3.9 18:45:59 10° N 18:52:00 59° E 18:58:00 10° SSE
Cosmos 1891 Rocket 4.5 18:46:34 10° N 18:52:44 60° E 18:58:44 10° SSE
SL-16 R/B 3.4 18:50:35 10° SSE 18:54:42 21° ESE 18:54:46 21° ESE
CSL-04 Rocket 3.7 18:53:36 10° SSE 18:58:53 52° ENE 19:04:05 10° N
FengYun 1-2 T 4.2 18:54:24 10° SSE 19:00:00 86° ENE 19:05:32 10° N
Cosmos 1072 Rocket 4.4 18:54:02 10° N 19:00:12 81° E 19:06:27 10° S
Cosmos 2219 3.1 18:55:50 10° N 19:01:25 70° ENE 19:07:01 10° SSE
Cosmos 1933 3.4 18:58:09 10° S 19:02:09 55° E 19:04:02 28° NNE
Cosmos 1515 Rocket 3.4 18:58:54 10° S 19:03:19 76° E 19:07:27 12° N
Cosmos 1980 Rocket 2.6 18:58:21 10° SSW 19:03:53 63° WNW 19:09:28 10° N
YAOGAN 6 2.9 19:01:05 10° S 19:04:35 63° W 19:08:03 10° NNW
Cosmos 1633 2.4 19:02:28 10° N 19:06:04 85° E 19:09:41 10° S
Cosmos 1328 Rocket 4.5 19:01:53 10° SSW 19:06:11 50° W 19:10:29 10° N
Cosmos 2322 Rocket 3.5 19:02:04 10° SSE 19:05:19 21° ESE 19:05:19 21° ESE
Hubble Space Telescope 0.7 19:02:55 10° SW 19:07:02 71° SSE 19:07:59 49° E
Cosmos 1633 Rocket 3.0 19:02:58 10° N 19:07:18 59° E 19:11:39 10° SSE
Cosmos 1151 Rocket 4.3 19:11:04 10° SSW 19:15:07 41° W 19:19:12 10° NNW
CZ-3C R/B 1.8 19:13:17 10° WSW 19:16:01 80° SSE 19:18:11 38° E
Envisat 4.5 19:11:23 10° SSW 19:16:04 38° W 19:20:46 10° NNW
Cosmos 1666 Rocket 3.6 19:12:36 10° N 19:16:56 76° W 19:21:13 10° S
SL-24 R/B - RUBIN 2 4.4 19:12:19 10° NNW 19:18:59 77° ENE 19:25:30 10° SSE
DELTA 2 R/B (1) 4.3 19:15:22 10° WSW 19:20:43 46° NW 19:23:03 29° NNE
Sich 1 4.4 19:18:58 10° NNW 19:23:03 40° W 19:27:09 10° SSW
Cosmos 2227 Rocket 2.1 19:18:16 10° N 19:23:50 63° ENE 19:29:24 10° SSE
YAOGAN 1 2.9 19:19:39 10° S 19:23:56 66° W 19:28:13 10° NNW
COSMOS 2455 4.0 19:19:10 10° SSE 19:22:37 25° SE 19:22:37 25° SE
Cosmos 2297 Rocket 2.0 19:18:40 10° N 19:24:18 71° ENE 19:29:54 10° SSE
Meteor 1-26 Rocket 4.2 19:19:37 10° S 19:25:28 65° E 19:27:40 39° NNE
Cosmos 1607 4.1 19:19:41 10° N 19:25:22 46° ENE 19:25:22 46° ENE
Palapa 6 Rocket 4.1 19:25:17 10° SW 19:28:46 33° SSE 19:28:46 33° SSE
SeaSat 1 3.9 19:31:38 10° S 19:36:09 37° WSW 19:40:40 10° NW
Mugunghwa Rocket 4.4 19:27:36 10° WSW 19:36:11 87° SSE 19:38:28 52° ENE
Cosmos 1862 4.5 19:33:01 10° NNW 19:36:46 41° W 19:40:32 10° SSW
GPS 2-17 Rocket1 3.3 19:34:15 10° WNW 19:38:20 65° WSW 19:38:20 65° WSW
BREEZE-M DEB (TANK) 4.5 19:39:15 10° SW 19:43:29 80° NW 19:50:39 29° NE
Aurora 2 Rocket 3.7 19:53:13 10° W 19:57:24 54° NW 19:57:24 54° NW
ATLAS 5 CENTAUR R/B 3.6 20:04:08 10° NNW 20:07:35 35° NNW 20:07:35 35° NNW
ATLAS 2AS CENTAUR R/B 4.2 20:10:12 10° S 20:13:15 26° S 20:13:15 26° S
SL-16 R/B 4.2 20:33:39 10° SW 20:36:43 24° WSW 20:36:43 24° WSW
